Regional Weather Roundup
Issued by NWS

Home | Current Version | Previous Version | Graphics & Text | Print | Product List | Glossary On
Versions: 1 2 3 4 5 6 7 8 9 10 11 12 13 14 15 16 17 18 19 20 21 22 23 24 25 26 27 28 29 30 31 32 33 34 35 36 37 38 39 40 41 42 43 44 45 46 47 48 49 50
209
ASUS43 KLSX 211857
RWRMO

WEATHER SUMMARY FOR MISSOURI
NATIONAL WEATHER SERVICE SPRINGFIELD MO
100 PM CST SAT JAN 21 2017

NOTE: "FAIR" INDICATES FEW OR NO CLOUDS BELOW 12,000 FEET WITH NO
       SIGNIFICANT WEATHER AND/OR OBSTRUCTIONS TO VISIBILITY.
       CURRENT SKY AND/OR WEATHER CONDITIONS ARE NOT AVAILABLE FOR
       CHILLICOTHE AND FARMINGTON.

MOZ001>031-035>038-043-044-053-054-212000-
...NORTHERN AND WESTERN MISSOURI...

CITY           SKY/WX    TMP DP  RH WIND       PRES   REMARKS
KANSAS CTY INT MOSUNNY   48  41  76 SW9       29.50F
LEE`S SUMMIT   SUNNY     51  42  71 SW9       29.51F
ST JOSEPH      CLOUDY    46  44  93 S12       29.50F
CHILLICOTHE      N/A     45  42  89 SW8       29.52F
KIRKSVILLE     CLOUDY    46  45  93 SW10      29.50F FOG

$$
MOZ066>068-077>081-088>096-101>105-212000-
...SOUTHWEST MISSOURI...

CITY           SKY/WX    TMP DP  RH WIND       PRES   REMARKS
SPRINGFIELD    MOSUNNY   62  37  39 S7        29.51F
JOPLIN         CLOUDY    60  36  40 SW6       29.51F
BRANSON        PTSUNNY   64  37  36 SW9       29.54F

$$
MOZ032>034-039>042-045>050-055>058-069>072-212000-
...CENTRAL MISSOURI...

CITY           SKY/WX    TMP DP  RH WIND       PRES   REMARKS
COLUMBIA       NOT AVBL
JEFFERSON CITY SUNNY     62  37  39 SW9       29.52F
ROLLA          SUNNY     65  36  34 SW14      29.51F
SEDALIA        SUNNY     57  41  55 SW12      29.53F
WARRENSBURG    SUNNY     52  41  66 S9        29.52F

$$
MOZ051-052-059>065-212000-
...EAST CENTRAL MISSOURI...

CITY           SKY/WX    TMP DP  RH WIND       PRES   REMARKS
ST LOUIS INTL  MOSUNNY   70  40  33 SW14      29.51F

$$
MOZ072>076-082>087-097>100-106>115-212000-
...SOUTH CENTRAL AND SOUTHEAST MISSOURI...

CITY           SKY/WX    TMP DP  RH WIND       PRES   REMARKS
CAPE GIRARDEAU SUNNY     67  54  63 S22G29    29.58F
POPLAR BLUFF   SUNNY     68  56  65 S15       29.57F
WEST PLAINS    CLOUDY    66  42  41 S10       29.56F

$$



USA.gov is the U.S. government's official web portal to all federal, state and local government web resources and services.